Location: Bullenkuhlen
(53.7689°N, 9.7495°E)
Time: 16:51:02
(UTC+00:00)

Cosmos 1607 - Pass Details

Date: 09 April 2020
Orbit: 917 x 985 km, 65.0° (Epoch: 24 May)

Event Time Altitude Azimuth Distance (km) Brightness Sun altitude
Exits shadow 23:12:03 46° 257° (WSW) 1,238 4.4 -28.2°
Maximum altitude 23:13:49 67° 320° (NW) 1,019 4.1 -28.2°
Drops below altitude 10° 23:20:05 10° 44° (NE) 2,691 6.8 -28.2°
Sets 23:22:42 0° 47° (NE) 3,650 7.6 -28.2°
